Tracking 28794 objects as of 22-Apr-2024
HD Live streaming from Space Station
objects crossing your sky now

RSW-02

Track RSW-02 now!
10-day predictions


NORAD ID: 49114
Int'l Code: 2021-076C
Perigee: 1,090.3 km
Apogee: 1,121.8 km
Inclination: 86.4 °
Period: 107.2 minutes
Semi major axis: 7477 km
RCS: Unknown
Launch date: August 24, 2021
Source: People's Republic of China (PRC)
Launch site: Jiuquan Satellite Launch Center, China (JSC)
Your satellite tracking list
Your tracking list is empty




NASA's NSSDC Master Catalog

Two Line Element Set (TLE):
1 49114U 21076C   24112.86088279  .00000144  00000-0  22646-3 0  9995
2 49114  86.4037  78.8340 0021060 100.4473 259.9046 13.42775798130357
Source of the keplerian elements: AFSPC